Tracking 31011 objects as of 12-Jul-2025
HD Live streaming from Space Station
objects crossing your sky now

STARLINK-5646

Track STARLINK-5646 now!
10-day predictions
STARLINK-5646 is classified as:


NORAD ID: 55461
Int'l Code: 2023-015N
Perigee: 565.2 km
Apogee: 567.2 km
Inclination: 43.0 °
Period: 95.8 minutes
Semi major axis: 6937 km
RCS: Unknown
Launch date: February 2, 2023
Source: United States (US)
Launch site: AIR FORCE EASTERN TEST RANGE (AFETR)
Your satellite tracking list
Your tracking list is empty




NASA's NSSDC Master Catalog

Two Line Element Set (TLE):
1 55461U 23015N   25193.45000758  .00000040  00000-0  18050-4 0  9993
2 55461  43.0024 191.5664 0001452 282.9311  77.1369 15.02543096134619
Source of the keplerian elements: AFSPC